Isachsen, Nunavut

1:21 PM MST on December 14, 2017 (GMT -0700)
Isachsen

Weather History for CWIC - May, 2013

Change the Weather History Date:

Monday, May 27, 2013

  Actual Average Record
Temperature  
Mean Temperature 22 °F -  
Max Temperature 25 °F - - ()
Min Temperature 18 °F - - ()
Degree Days  
Heating Degree Days 44    
Moisture  
Dew Point 24 °F    
Average Humidity 98    
Maximum Humidity 100    
Minimum Humidity 93    
Precipitation  
Precipitation 0.00 in - - ()
Sea Level Pressure  
Sea Level Pressure 30.23 in    
Wind  
Wind Speed 10 mph ()    
Max Wind Speed 16 mph    
Max Gust Speed 23 mph    
T = Trace of Precipitation, MM = Missing Value Source: Averaged Metar Reports

Daily Weather History Graph

Daily Weather History Graph

Search for Another Location

Airport or City:

Trip Planner

Search our weather history database for the weather conditions in past years. The results will help you decide how hot, cold, wet, or windy it might be!

Date:

Astronomy

Dec. 31, 1969 Rise Set
Actual Time Sun does not rise Sun does not rise
Civil Twilight Sun does not rise Sun does not rise
Nautical Twilight Sun does not rise Sun does not rise
Astronomical Twilight Sun does not rise Sun does not rise
Moon No Moon Rise No Moon Set
Length of Visible Light 24h 00m
Length of Day
24h 00m
Waning Gibbous, 90% of the Moon is Illuminated
May 27
Waning Gibbous
May 31
Last Quarter
Jun 8
New
Jun 16
First Quarter
Jun 23
Full

Hourly Weather History & Observations

Time (MDT) Temp. Windchill Dew Point Humidity Pressure Visibility Wind Dir Wind Speed Gust Speed Precip Events Conditions
12:00 AM 24 °F - 24 °F 99% 30.30 in - WSW 10.4 mph - -  
12:00 AM 24.8 °F 14.6 °F 23.0 °F 93% 30.30 in - WSW 10.4 mph - N/A   Unknown
1:00 AM 23.0 °F 13.1 °F 23.0 °F 100% 30.30 in - WSW 9.2 mph - N/A   Unknown
2:00 AM 23.0 °F 12.4 °F 23.0 °F 100% 30.30 in - WSW 10.4 mph - N/A   Unknown
3:00 AM 24.8 °F 14.6 °F 23.0 °F 93% 30.30 in - WSW 10.4 mph - N/A   Unknown
4:00 AM 24.8 °F 15.3 °F 24.8 °F 100% 30.30 in - WSW 9.2 mph - N/A   Unknown
5:00 AM 24.8 °F 13.4 °F 24.8 °F 100% 30.30 in - SW 12.7 mph - N/A   Unknown
6:00 AM 25 °F - 24 °F 97% 30.30 in - WSW 10.4 mph - -  
6:00 AM 24.8 °F 14.6 °F 24.8 °F 100% 30.30 in - WSW 10.4 mph - N/A   Unknown
7:00 AM 24.8 °F 15.3 °F 24.8 °F 100% 30.29 in - WSW 9.2 mph - N/A   Unknown
8:00 AM 24.8 °F 16.1 °F 24.8 °F 100% 30.28 in - WSW 8.1 mph - N/A   Unknown
9:00 AM 24.8 °F 15.3 °F 24.8 °F 100% 30.27 in - SW 9.2 mph - N/A   Unknown
10:00 AM 26.6 °F 17.5 °F 24.8 °F 93% 30.27 in - SSW 9.2 mph - N/A   Unknown
11:00 AM 24.8 °F 14.0 °F 24.8 °F 100% 30.25 in - SSW 11.5 mph - N/A   Unknown
12:00 PM 25 °F - 25 °F 98% 30.25 in - South 12.7 mph - -  
12:00 PM 24.8 °F 13.4 °F 24.8 °F 100% 30.25 in - South 12.7 mph - N/A   Unknown
1:00 PM 24.8 °F 12.9 °F 24.8 °F 100% 30.23 in - South 13.8 mph - N/A   Unknown
2:00 PM 24.8 °F 12.9 °F 23.0 °F 93% 30.22 in - South 13.8 mph - N/A   Unknown
3:00 PM 24.8 °F 12.4 °F 24.8 °F 100% 30.21 in - SSW 15.0 mph - N/A   Unknown
4:00 PM 24.8 °F 12.9 °F 24.8 °F 100% 30.20 in - South 13.8 mph - N/A   Unknown
5:00 PM 24.8 °F 12.4 °F 24.8 °F 100% 30.19 in - South 15.0 mph - N/A   Unknown
6:00 PM 25 °F - 24 °F 96% 30.17 in - South 16.1 mph - -  
6:00 PM 24.8 °F 11.9 °F 24.8 °F 100% 30.17 in - South 16.1 mph - N/A   Unknown
7:00 PM 24.8 °F 12.4 °F 24.8 °F 100% 30.15 in - South 15.0 mph - N/A   Unknown
8:00 PM 24.8 °F 12.4 °F 23.0 °F 93% 30.13 in - South 15.0 mph 20.7 mph N/A   Unknown
9:00 PM 23.0 °F 9.6 °F 23.0 °F 100% 30.11 in - South 16.1 mph 23.0 mph N/A   Unknown
10:00 PM 21.2 °F 7.3 °F 21.2 °F 100% 30.10 in - South 16.1 mph - N/A   Unknown
11:00 PM 21.2 °F 9.5 °F 19.4 °F 93% 30.08 in - SSE 11.5 mph - N/A   Unknown